Location: Hothfield
(51.1500°N, 0.8167°E)
Time: 15:08:03
(UTC+00:00)

Daily predictions for brighter satellites

Satellite Brightness Start Highest point End
(mag) Time Altitude Azimuth Time Altitude Azimuth Time Altitude Azimuth
NOSS 3-4 (A) 3.8 19:25:47 10° SW 19:31:42 72° NW 19:38:10 10° NE
NOSS 3-4 (C) 3.8 19:25:54 10° SW 19:31:48 72° NW 19:38:16 10° NE
CZ-2C R/B 3.3 19:33:31 10° N 19:38:39 61° WNW 19:43:49 10° SSW
Cosmos 1634 Rocket 4.1 19:32:34 10° S 19:38:43 63° E 19:44:53 10° NNE
MOS 1 4.3 19:35:53 10° SSE 19:41:30 73° ENE 19:47:10 10° NNW
Cosmos 405 3.1 19:38:35 10° SSW 19:42:03 77° WNW 19:45:34 10° N
SAR-Lupe-4 4.1 19:38:49 10° N 19:42:23 65° WNW 19:45:56 10° SSW
ERS-2 2.4 19:40:08 10° NNE 19:43:47 73° WNW 19:47:24 10° SSW
Cosmos 192 4.4 19:39:04 10° NNW 19:44:03 66° ENE 19:48:58 10° SE
Cosmos 1076 Rocket 3.8 19:39:57 10° N 19:44:12 49° ENE 19:48:23 10° SSE
ARIANE 5 R/B 4.4 19:41:46 10° E 19:44:41 18° ENE 19:47:37 10° NNE
NOSS 7 (E) 4.2 19:41:25 10° SW 19:45:04 80° SE 19:48:09 10° NE
COSMOS 2455 4.5 19:42:57 10° ESE 19:45:15 12° E 19:47:33 10° ENE
ATLAS 2AS CENTAUR R/B 3.2 19:37:20 10° SW 19:45:17 86° NW 19:53:04 10° NE
SL-16 R/B 3.2 19:46:38 10° NNW 19:51:49 34° NE 19:56:57 10° ESE
IGS 5A 4.2 19:48:05 10° SE 19:51:53 36° ENE 19:55:43 10° N
Cosmos 1980 3.8 19:46:10 10° NNW 19:51:54 75° ENE 19:57:34 10° SE
IRS-1A Rocket 4.3 19:46:22 10° SSE 19:51:58 86° ENE 19:57:45 10° NNW
CZ-4 R/B 4.5 19:52:33 10° WSW 19:54:53 14° W 19:57:14 10° NW
Cosmos 2292 Rocket 4.5 19:48:27 10° N 19:55:20 63° ENE 20:00:27 10° SSE
Cosmos 2058 Rocket 3.3 19:51:53 10° SSW 19:56:14 73° WNW 20:00:37 10° N
Cosmos 389 Rocket 2.9 19:53:44 10° SSE 19:57:04 41° E 20:00:28 10° NNE
SL-4 R/B 3.6 19:55:01 10° S 19:58:03 18° SE 20:01:13 10° E
SME Rocket 4.0 19:56:24 10° N 20:00:10 55° WNW 20:04:51 10° SW
NOSS 0 Rocket 4.2 19:54:45 10° NW 20:00:59 73° WSW 20:07:11 10° SSE
Cosmos 2251 Rocket 3.5 19:57:22 10° SSW 20:02:44 81° ESE 20:08:05 10° NNE
Ariane Rocket 3.1 19:57:59 10° SSE 20:03:02 82° WSW 20:08:08 10° NNW
Cosmos 1455 2.9 20:01:11 10° SSW 20:04:53 57° WNW 20:08:35 10° N
Cosmos 1812 Rocket 3.9 20:01:28 10° SSE 20:05:41 45° E 20:09:58 10° NNE
Cosmos 2219 Rocket 3.7 20:03:02 10° NW 20:08:07 34° WSW 20:13:11 10° S
COSMOS 2428 3.9 20:02:47 10° NW 20:08:07 40° WSW 20:13:25 10° S
Meteor 2-1 Rocket 4.4 20:02:58 10° S 20:08:51 88° ESE 20:14:51 10° NNE
SPOT 1/Viking Rocket 4.2 20:04:57 12° SE 20:09:29 41° ENE 20:14:22 10° N
Cosmos 614 Rocket 3.9 20:04:49 10° SSW 20:09:55 70° ESE 20:15:00 10° NNE
ATLAS 5 CENTAUR R/B 4.0 20:06:34 10° WNW 20:10:09 24° NNW 20:14:12 10° NE
BREEZE-M DEB (TANK) 4.1 20:06:51 10° WSW 20:10:11 68° SSE 20:19:31 10° E
FALCON 9 DEB 4.4 20:09:19 10° S 20:11:24 17° SE 20:11:42 17° SE
FALCON 9 DEB 3.0 20:09:19 10° WSW 20:12:44 74° SSE 20:16:10 10° ENE
CZ-4C R/B 3.9 20:08:22 10° W 20:13:26 37° NNW 20:19:31 10° NE
Orbus 7S? 3.3 20:10:42 10° SW 20:13:38 79° SE 20:19:25 10° ENE
Cosmos 1655 Rocket 4.1 20:08:59 10° N 20:15:14 61° ENE 20:21:20 10° SSE
Cosmos 2344 3.5 20:08:46 10° SW 20:16:11 80° SE 20:24:19 10° NE
ATLAS 3B R/B 3.7 20:09:36 10° NW 20:16:13 45° WSW 20:23:04 10° S
RESURS DK-1 3.1 20:12:34 10° SW 20:16:39 59° NW 20:20:46 10° NNE
SPOT 3 Rocket 3.6 20:11:48 10° SSE 20:16:58 74° ENE 20:22:09 10° NNW
Meteor 2-3 Rocket 3.9 20:14:45 10° N 20:20:28 59° ENE 20:25:24 14° SSE
Terra 3.4 20:20:42 13° E 20:23:33 21° ENE 20:27:05 10° N
FALCON 9 DEB 4.0 20:21:20 10° SSW 20:23:44 22° SE 20:23:53 22° SE
USA 215 3.3 20:18:58 13° ESE 20:24:54 82° NNE 20:31:29 10° WNW
Cosmos 1809 Rocket 4.5 20:20:22 10° N 20:26:31 88° WSW 20:32:38 10° S
Resurs 01 Rocket 1.6 20:22:49 10° SSE 20:27:17 88° WSW 20:31:47 10° NNW
SPOT 5 3.9 20:25:51 16° ESE 20:28:40 29° ENE 20:32:50 10° N
Cosmos 405 Rocket 3.8 20:25:30 10° NNW 20:29:20 45° W 20:33:05 10° SSW
Resurs 1-3 4.4 20:27:09 10° S 20:31:25 50° W 20:35:43 10° NNW
MetOp-B 4.1 20:30:18 14° SSE 20:35:02 79° ENE 20:40:26 10° NNW
ERS-1 Rocket 3.8 20:34:04 19° ESE 20:37:07 37° ENE 20:41:42 10° N
Cosmos 2237 Rocket 2.7 20:34:23 10° NW 20:39:55 57° WSW 20:44:53 13° S
Meteor 2-14 Rocket 4.5 20:35:58 10° NNW 20:42:04 82° W 20:48:03 10° S
OBJECT-B 3.7 20:41:47 10° SW 20:43:50 16° W 20:45:55 10° NW
FALCON 9 DEB 4.4 20:41:35 10° SSW 20:43:01 20° S 20:43:01 20° S
Cosmos 407 Rocket 3.4 20:40:23 10° SSW 20:45:30 76° ESE 20:50:42 10° NNE
Cosmos 2263 Rocket 4.1 20:51:48 12° E 20:51:48 12° E 20:53:09 10° ENE
Lacrosse 5 rocket 2.6 20:47:58 10° WNW 20:51:56 39° N 20:56:01 10° ENE
Cosmos 2084 Rocket 3.5 20:49:37 10° SSW 20:53:25 46° SE 20:57:20 10° NE
Cosmos 1023 Rocket 4.3 20:48:40 10° SSW 20:53:44 81° ESE 20:58:51 10° NNE
Landsat 7 4.1 20:51:00 15° S 20:54:58 66° WSW 20:59:44 10° NNW
Cosmos 2279 Rocket 4.5 20:49:02 10° SSW 20:55:09 62° WNW 21:01:20 10° N
Cosmos 2082 4.2 20:53:32 19° SSE 20:56:58 38° ESE 21:02:06 10° NE
Cosmos 1869 3.6 20:55:43 30° SE 20:57:10 44° E 21:00:57 10° NNE
Cosmos 2227 Rocket 2.1 20:51:48 10° SSW 20:57:24 66° ESE 21:03:02 10° NE
Cosmos 1140 Rocket 3.4 20:56:23 10° SSW 21:01:31 89° ESE 21:06:41 10° NNE
Cosmos 1954 Rocket 4.1 20:58:20 15° S 21:02:23 52° ESE 21:07:25 10° NNE
Cosmos 2297 Rocket 2.2 20:58:35 10° SSW 21:04:15 89° ESE 21:09:57 10° NNE
Cosmos-2242 3.0 21:01:02 13° SSW 21:04:55 84° W 21:09:15 10° N
Cosmos 482 Debris 4.0 21:04:49 10° W 21:06:19 37° WNW 21:06:19 37° WNW
Genesis I 4.3 21:03:55 10° NW 21:07:38 37° WSW 21:09:24 24° S
Cosmos 2151 4.0 21:04:17 10° NNW 21:08:23 43° W 21:11:50 14° SSW
Cosmos 1633 4.1 21:06:04 10° NNW 21:09:19 32° W 21:12:01 13° SSW
Cosmos 2219 3.2 21:06:15 10° SSW 21:11:52 88° WNW 21:17:33 10° NNE
Spot 2 Rocket 3.5 21:09:33 25° SSE 21:12:37 83° WSW 21:17:43 10° NNW
Cosmos 1408 Rocket 3.7 21:12:51 10° N 21:17:07 55° ENE 21:18:23 39° SE
Cosmos 2266 Rocket 4.4 21:11:17 10° NNW 21:17:34 62° W 21:22:49 15° S
USA 229 DEB 4.2 21:10:59 10° NW 21:18:06 61° NE 21:23:02 23° ESE
USA 229 4.2 21:11:05 10° NW 21:18:11 60° NE 21:23:08 23° ESE
Cosmos 44 Rocket 3.7 21:16:06 26° S 21:18:27 43° ESE 21:23:22 10° NE
Meteor 1-4 Rocket 2.3 21:19:03 54° SSE 21:19:40 70° E 21:23:13 10° NNE
ARIANE 5 R/B 2.7 21:18:32 30° S 21:20:41 71° WSW 21:25:04 10° NNW
USA 245 3.9 21:23:37 27° SSW 21:25:01 41° WSW 21:27:58 10° NNW
Cosmos 468 Rocket 3.9 21:22:33 10° NNW 21:27:44 86° ENE 21:29:45 38° SSE
CZ-2C R/B 4.2 21:23:23 10° N 21:27:45 57° WNW 21:32:05 10° SSW
COSMOS 2455 2.8 21:24:05 10° SSW 21:30:00 62° ESE 21:35:57 10° NE
Cosmos 2221 2.8 21:29:48 42° ESE 21:30:12 44° E 21:34:17 10° NNE
Cosmos 841 Rocket 3.9 21:28:10 10° NNW 21:33:16 50° ENE 21:35:03 35° ESE
Cosmos 1743 Rocket 3.9 21:30:54 10° N 21:35:06 46° ENE 21:35:47 42° ESE
NOSS 3-1 (A) 4.2 21:28:54 10° NW 21:36:03 68° NE 21:41:02 27° ESE
SL-16 R/B 2.6 21:30:40 10° NW 21:36:15 57° WSW 21:38:53 30° S
SL-4 R/B 2.3 21:32:36 10° SW 21:37:01 58° SSE 21:38:43 36° E
ATLAS 2AS CENTAUR R/B 4.3 21:29:54 10° W 21:37:14 40° NNW 21:44:17 10° NE
Nadezhda 2 Rocket 4.4 21:31:43 10° N 21:38:01 87° E 21:41:00 33° SSE
Cosmos 1763 Rocket 3.4 21:37:09 10° NNW 21:42:14 77° WSW 21:43:55 43° S
CZ-4B DEB 4.3 21:45:00 79° NW 21:45:00 79° NW 21:48:06 10° NNW
Timation 2 Rocket 4.3 21:38:23 10° SW 21:44:53 68° NW 21:51:09 10° NNE
Timation 1 Rocket 4.2 21:39:17 10° SSW 21:45:15 82° ESE 21:51:16 10° NNE
Cosmos 1862 3.1 21:42:10 10° N 21:46:08 87° ENE 21:46:37 68° SSE
FALCON 9 DEB 3.5 21:46:19 10° W 21:49:44 61° N 21:50:09 55° NE
Cosmos 540 Rocket 3.4 21:47:45 10° NNW 21:52:54 77° ENE 21:54:12 50° SE
Cosmos 1500 Rocket 3.5 21:49:07 10° N 21:53:36 71° ENE 21:54:14 60° SE
SL-08 R/B 4.4 21:50:02 10° N 21:56:15 81° E 21:58:34 42° SSE
ATLAS 5 CENTAUR R/B 4.2 21:52:37 10° NW 21:56:23 22° N 22:00:38 10° ENE
NOSS 3-1 (C) 4.0 21:53:10 10° NW 22:00:30 76° SW 22:04:15 37° SSE
Cosmos 676 Rocket 4.5 21:55:27 10° SW 22:00:30 59° WNW 22:05:39 10° NNE
Meteor 2-15 4.5 21:57:22 28° SSW 22:00:47 79° WNW 22:06:53 10° N
Terra 2.0 21:59:35 46° SSW 22:00:52 66° WSW 22:05:38 10° NNW
Cosmos 1943 3.2 21:57:33 10° NNW 22:03:11 70° ENE 22:04:47 47° SE
CZ-4C R/B 4.4 21:58:30 10° NW 22:03:44 28° N 22:09:51 10° ENE
Resurs 01 Rocket 4.3 22:02:42 10° WSW 22:04:28 12° W 22:06:13 10° WNW
SPOT 5 3.6 22:05:05 33° SW 22:06:34 43° W 22:11:11 10° NNW
USA 215 3.8 22:06:17 35° S 22:08:17 43° SW 22:14:29 10° WNW
Cosmos 1553 Rocket 3.8 22:08:29 44° S 22:10:32 79° E 22:16:41 10° NNE
TSX-5 3.9 22:11:33 54° SW 22:12:31 85° NW 22:16:24 10° NNE
H-2A R/B 3.6 22:09:22 10° N 22:13:35 71° WNW 22:14:18 57° SW
ALOS 2 4.0 22:14:51 26° ENE 22:15:17 26° ENE 22:18:57 10° N
ERS-1 Rocket 4.0 22:14:04 28° SW 22:15:55 37° W 22:20:35 10° NNW
BREEZE M DEB (TANK) 3.6 22:14:23 10° W 22:17:01 28° WSW 22:17:01 28° WSW
Cosmos 1417 Rocket 4.4 22:19:39 46° S 22:21:41 82° E 22:27:58 10° NNE
Cosmos 1606 3.2 22:22:29 53° NNE 22:22:29 53° NNE 22:25:30 10° NNE
Aureole 1 Rocket 3.3 22:22:52 60° S 22:23:49 78° ESE 22:28:20 10° NNE
Cosmos 1570 Rocket 3.9 22:21:13 10° NNW 22:26:33 88° WSW 22:27:21 66° SSE
Lacrosse 5 rocket 1.5 22:27:12 10° WNW 22:31:32 78° NNE 22:31:37 78° NE
Cosmos 2263 Rocket 2.0 22:33:26 63° SSE 22:33:59 68° ESE 22:39:33 10° NE
SeaSat 1 2.9 22:30:25 10° NE 22:34:31 44° E 22:34:31 44° E
Cosmos 921 Rocket 3.2 22:32:59 10° NNW 22:37:16 62° W 22:37:16 62° W
Meteor 2-17 Rocket 4.4 22:31:36 10° N 22:37:46 71° ENE 22:39:05 55° SE
NOSS 2-1 (C) 4.2 22:42:17 39° N 22:42:17 39° N 22:44:56 10° NE
Iridium 4 Rocket 4.2 22:41:38 39° E 22:41:47 39° E 22:46:46 10° NNE
Cosmos 2227 Rocket 4.0 22:36:58 10° WSW 22:41:55 30° NW 22:46:53 10° NNE
Cosmos 1741 Rocket 4.2 22:41:18 42° SW 22:43:01 67° WNW 22:48:19 10° NNE
Cosmos 1850 Rocket 4.4 22:44:50 38° SW 22:46:40 60° WNW 22:51:54 10° NNE
Cosmos 1844 Rocket 4.2 22:48:08 21° E 22:48:08 21° E 22:51:14 10° NE
Cosmos 1933 4.1 22:48:09 47° NE 22:48:09 47° NE 22:51:17 10° NNE
NOSS 2-1 (D) 4.2 22:48:37 40° N 22:48:37 40° N 22:51:30 10° NE
Cosmos 2297 Rocket 4.4 22:44:31 10° W 22:49:04 24° NW 22:53:39 10° NNE
Cosmos 2315 Rocket 4.1 22:48:28 53° SE 22:49:30 60° E 22:55:46 10° NNE
Cosmos 1603 3.9 22:45:13 10° NW 22:50:49 55° WSW 22:51:30 52° SW
USA 281 4.4 22:47:12 20° E 22:50:59 35° NE 22:56:50 10° NNW
Spot 4 3.7 22:52:41 84° S 22:52:51 89° WSW 22:57:45 10° NNW
Cosmos 1242 Rocket 4.5 22:54:37 24° NE 22:54:37 24° NE 22:56:23 10° NNE
Cosmos 44 Rocket 4.5 22:55:07 10° WSW 23:00:03 45° NW 23:05:06 10° NE
Cosmos 1805 Rocket 4.3 22:58:09 10° NNW 23:02:06 44° W 23:02:06 44° W
Cosmos 968 Rocket 4.2 23:03:16 41° E 23:03:16 41° E 23:07:35 10° NE
Sich 1 3.6 23:00:16 10° NNW 23:04:02 51° WNW 23:04:02 51° WNW
Cosmos 2208 Rocket 4.3 23:00:08 10° NNW 23:05:20 55° WSW 23:05:36 54° WSW
Meteor 1-14 Rocket 4.4 23:01:55 10° N 23:07:55 66° ENE 23:08:50 58° ESE
Cosmos 2221 4.4 23:06:36 19° W 23:07:58 23° WNW 23:11:24 10° NNW
NOSS 2-2 (D) 4.4 23:03:16 10° NW 23:08:15 68° NE 23:10:04 46° ESE
USA 229 DEB 4.3 23:02:07 10° NW 23:09:04 48° WSW 23:10:27 43° SSW
USA 229 4.2 23:02:12 10° NW 23:09:10 48° WSW 23:10:34 44° SSW
Cosmos 1437 Rocket 3.8 23:14:56 43° NNW 23:14:56 43° NNW 23:17:49 10° N
Cosmos 2074 Rocket 4.3 23:08:09 10° N 23:14:19 55° ENE 23:15:33 48° ESE
Cosmos 1470 Rocket 4.0 23:11:10 10° N 23:15:04 57° NE 23:15:04 57° NE
COSMOS 2455 4.2 23:10:43 10° WSW 23:16:18 38° NW 23:21:54 10° NNE
Cosmos 1709 Rocket 4.0 23:10:22 10° NNW 23:16:32 65° W 23:17:37 55° SW
COBE Rocket 4.1 23:16:33 57° ENE 23:16:36 57° ENE 23:21:25 10° N
SL-4 R/B 3.6 23:12:02 10° W 23:14:25 31° W 23:14:25 31° W
Cosmos 1633 Rocket 3.5 23:19:25 10° NNW 23:23:07 58° NW 23:23:07 58° NW
Cosmos 836 Rocket 4.4 23:23:51 10° NNW 23:29:12 88° WSW 23:29:17 87° S
Cosmos 1933 Rocket 4.1 23:27:30 10° N 23:31:16 54° NE 23:31:16 54° NE
Cosmos 1486 Rocket 4.2 23:33:18 61° E 23:33:18 61° E 23:38:16 10° NNE
Cosmos 1666 Rocket 4.4 23:29:14 10° NNW 23:33:00 43° WNW 23:33:00 43° WNW
Cosmos 1666 4.0 23:34:46 10° N 23:37:24 38° NNE 23:37:24 38° NNE
ATLAS 5 CENTAUR R/B 3.2 23:37:17 10° NW 23:42:13 42° NNE 23:46:48 16° E
Cosmos 1328 Rocket 3.9 23:44:04 64° NNW 23:44:04 64° NNW 23:47:57 10° N
Meteor 1-26 Rocket 4.4 23:49:13 57° WSW 23:50:08 65° WNW 23:55:54 10° N
ALOS 2 3.6 23:52:15 38° WNW 23:52:15 38° WNW 23:55:39 10° NNW
COSMOS 2406 4.4 23:48:24 10° NNW 23:53:40 37° NE 23:56:33 23° E
